INTELSAT 5 (IS-5) (24916 NORAD) Tracking and Keplerian Element Data

This shows tracking and keplerian element data for the satellite.

Feedback or suggestion? Click here.




ElementValue
Catalog24916
NameINTELSAT 5 (IS-5)
Epoch Orbit7813
Epoch Day349.33682974
Epoch Year2018
RAAN68.4253
Inclination4.6121
Eccentricity0.0003811
Argument of Perigee199.0665
Mean Anonmoly160.7047
Mean Motion1.00272183
Decay Rate1.03E-06
L11 24916U 97046A 18349.33682974 .00000103 00000-0 00000+0 0 9998
L22 24916 4.6121 68.4253 0003811 199.0665 160.7047 1.00272183 78133

Live tracking and technical data element details for INTELSAT 5 (IS-5) (NORAD 24916). INTELSAT 5 (IS-5) can be tracked NOW for your location showing map with azimuth and elevation plus other details from your city location.

Track the satellite on the map from your city or location and see movement details for azimuth, elevation, latitude, longitude, range, height, and movement on the map or in text.







IsCatalogInMostPopularTable: catalog: 24916, numindb: 64
Update: records affected: 1



GetName: 24916 INTELSAT 5 (IS-5)

Hit Count: updated at: Sun, 16 Dec 2018 11:18:47 GMT